Temp
0 -0 -0 -0 1 1 2 3 6 7 7 6 7 8 11 12 13 15 15 16 15 16 16 16 16 17 18 19 16 15 14 13 9 15 17 19 17 17 15 10 15 8 8 13
0 -1 0 0 1 1 2 4 6 6 8 6 6 9 10 11 13 14 15 16 17 19 17 17 16 17 18 19 18 16 14 13 10 13 16 17 17 17 16 13 8 11 9 12
-1 -1 -0 0 0 1 2 4 6 5 6 9 8 8 9 10 12 12 14 15 15 17 17 17 16 16 17 17 17 17 17 14 13 11 14 15 17 18 16 14 9 11 9 15
-1 -1 -1 0 -0 1 2 5 8 8 6 7 9 9 10 9 11 14 15 15 15 15 16 16 16 15 15 16 16 17 14 15 15 15 16 17 17 18 17 15 14 12 14 13
-1 -1 0 1 -0 1 2 5 8 8 8 8 7 9 10 10 12 13 14 14 15 15 16 15 15 15 14 15 15 16 14 13 15 15 14 15 16 16 15 16 17 15 15 15
-1 -1 1 0 -0 1 2 3 7 9 9 8 7 8 10 11 12 14 14 15 15 15 16 17 18 18 17 15 14 13 12 9 9 12 10 12 10 13 15 16 16 16 14 15
-1 -0 0 0 -0 1 2 3 6 8 8 9 9 10 11 11 13 13 16 16 14 16 17 16 16 14 13 13 11 13 10 9 6 7 8 9 13 14 15 14 13 13 13 12
-1 -0 0 -0 0 0 2 3 4 7 4 9 10 10 11 13 14 13 15 16 18 18 17 10 11 7 10 12 13 12 12 7 7 7 7 11 14 16 15 14 13 13 12 12
-0 1 -0 -0 -0 -0 2 3 4 5 6 9 11 10 12 11 12 12 14 16 17 17 7 7 10 9 11 11 13 11 9 6 7 5 8 8 11 14 16 13 9 13 13 12
-0 -1 -0 0 -0 0 1 2 2 3 6 11 11 11 12 13 11 12 11 14 14 15 4 5 7 9 12 9 9 8 5 4 5 2 4 7 10 14 15 12 10 13 13 13
-0 -0 -0 1 1 1 1 1 2 3 5 8 11 13 13 14 14 9 11 11 10 5 7 7 6 5 8 8 10 9 8 6 4 5 5 9 13 15 12 10 13 14 14 14
-1 -0 -0 0 -0 1 1 2 2 3 4 6 7 11 13 15 15 15 12 13 12 11 8 5 5 5 4 7 7 11 10 8 7 8 7 11 15 15 15 15 14 13 13 13
-1 -1 -0 0 1 1 2 2 3 2 3 5 8 11 12 15 16 16 15 12 14 14 14 6 5 8 3 6 5 10 12 11 8 9 12 12 13 14 14 14 14 12 12 12
-0 -0 0 1 1 1 2 2 3 4 5 5 9 11 12 14 16 17 16 17 16 16 13 5 3 5 8 4 8 7 10 11 10 9 9 10 10 10 11 11 11 11 10 10
0 1 1 0 1 1 1 2 2 5 4 5 6 10 11 14 15 15 16 16 16 15 10 3 5 5 7 2 4 5 11 10 7 7 12 10 8 8 9 10 9 9 10 7
0 0 0 1 1 1 1 1 3 4 4 5 5 8 11 13 14 16 16 14 15 14 12 5 10 11 9 4 4 10 12 13 15 10 11 11 8 8 8 9 7 7 7 6
0 0 1 1 1 2 2 4 6 6 4 5 5 5 10 11 12 12 12 13 13 12 10 9 8 10 9 1 5 9 9 11 12 12 10 5 6 4 5 6 5 5 3 3
1 1 1 2 2 3 3 5 6 6 5 6 5 5 7 9 9 9 11 10 10 9 8 9 4 8 5 6 7 8 8 9 8 8 9 8 5 4 4 3 3 2 1 1
1 1 2 2 3 4 6 6 4 6 6 5 4 5 7 8 7 8 9 9 4 6 3 3 6 3 4 7 7 7 8 9 4 5 6 4 4 2 2 2 1 1 -0 0
2 2 3 5 5 4 4 3 6 6 7 7 3 5 5 7 5 4 4 4 3 3 2 6 3 0 5 7 8 8 7 7 6 3 1 2 1 0 0 0 0 0 0 0
3 5 5 4 5 4 5 4 5 6 2 4 4 5 5 6 4 3 4 3 2 3 3 4 4 2 4 4 7 6 7 6 6 6 4 3 3 1 0 0 0 0 -0 -0
6 6 5 5 5 4 3 2 2 3 4 3 3 4 5 6 6 3 3 3 2 5 3 2 3 2 3 4 4 4 5 5 4 4 2 1 1 1 0 -0 -0 -1 -1 -1
6 6 6 5 2 3 2 3 3 3 1 2 4 3 4 5 6 2 2 4 4 3 3 4 1 2 2 3 3 3 3 3 3 1 1 0 0 0 0 -0 -1 -1 -2 -2
6 3 1 2 2 1 0 1 1 0 1 3 3 3 2 3 2 1 5 2 3 4 4 4 1 2 1 1 1 2 2 2 1 1 0 0 -0 -0 -1 -1 -2 -2 -3 -3
1 1 1 0 -1 -1 -1 -0 0 1 2 3 3 2 3 1 2 1 2 3 4 3 3 1 1 1 1 0 1 1 1 0 0 -0 -0 -0 -1 -1 -2 -3 -3 -3 -4 -4
-0 -1 0 -0 0 -1 -1 -0 0 1 2 3 2 2 2 2 2 3 3 4 3 1 -1 0 1 0 0 0 -0 -1 -1 -0 -1 -1 -1 -1 -2 -2 -3 -4 -4 -5 -5 -5
-2 -1 -2 -1 -1 -1 -1 -1 -0 1 1 1 -0 2 1 1 2 1 0 0 -1 -1 -1 -0 0 -0 -1 -1 -1 -1 -2 -2 -1 -1 -2 -3 -3 -4 -4 -5 -6 -6 -6 -6
Height
1384 1395 1404 1413 1426 1437 1446 1454 1455 1457 1466 1478 1474 1464 1466 1470 1461 1466 1467 1460 1458 1457 1458 1463 1468 1469 1465 1462 1465 1480 1481 1495 1517 1494 1481 1476 1484 1494 1498 1527 1514 1531 1534 1515
1371 1384 1394 1404 1416 1425 1436 1441 1449 1453 1456 1460 1460 1462 1462 1465 1458 1461 1461 1456 1449 1445 1453 1462 1460 1460 1459 1460 1465 1472 1478 1493 1518 1504 1490 1487 1489 1485 1487 1497 1513 1517 1535 1516
1362 1373 1385 1397 1406 1417 1428 1434 1439 1444 1447 1440 1447 1456 1457 1457 1454 1460 1459 1455 1451 1448 1451 1449 1458 1460 1460 1457 1459 1463 1467 1482 1493 1510 1495 1486 1487 1480 1483 1490 1519 1512 1515 1494
1353 1365 1377 1388 1395 1406 1421 1420 1415 1418 1424 1427 1436 1443 1448 1451 1452 1448 1449 1450 1450 1452 1453 1452 1454 1457 1464 1461 1460 1464 1469 1481 1481 1481 1478 1478 1479 1480 1478 1487 1489 1502 1492 1491
1344 1356 1368 1376 1385 1398 1409 1404 1403 1410 1411 1423 1433 1431 1434 1438 1441 1442 1441 1446 1440 1444 1446 1447 1454 1451 1464 1460 1462 1463 1467 1483 1480 1483 1484 1480 1481 1480 1479 1478 1476 1483 1482 1481
1336 1347 1358 1366 1375 1389 1390 1398 1398 1401 1407 1413 1422 1414 1423 1425 1435 1434 1434 1437 1439 1441 1437 1436 1439 1440 1446 1448 1458 1465 1472 1486 1496 1494 1492 1488 1502 1483 1476 1473 1472 1473 1485 1478
1328 1339 1349 1359 1368 1378 1388 1393 1397 1395 1396 1403 1398 1413 1418 1418 1425 1431 1427 1433 1437 1435 1433 1437 1442 1446 1451 1454 1458 1457 1474 1483 1497 1505 1500 1513 1479 1468 1467 1472 1476 1472 1476 1478
1322 1332 1343 1353 1362 1372 1383 1391 1395 1393 1396 1395 1401 1408 1411 1420 1421 1424 1424 1424 1427 1429 1429 1446 1456 1470 1463 1461 1461 1462 1464 1481 1498 1504 1506 1489 1472 1466 1470 1470 1482 1477 1477 1478
1319 1329 1339 1349 1358 1368 1380 1385 1393 1393 1393 1384 1397 1404 1405 1408 1413 1421 1419 1422 1425 1423 1430 1448 1460 1473 1466 1471 1467 1466 1469 1474 1487 1504 1504 1507 1477 1464 1462 1464 1493 1477 1475 1477
1317 1327 1336 1345 1354 1365 1374 1380 1388 1394 1391 1382 1387 1387 1389 1402 1405 1412 1416 1417 1421 1417 1438 1458 1464 1465 1453 1470 1474 1479 1486 1489 1496 1514 1509 1492 1465 1461 1462 1483 1486 1473 1474 1475
1314 1323 1332 1341 1350 1361 1370 1377 1385 1393 1393 1381 1381 1384 1386 1392 1396 1404 1407 1415 1417 1425 1438 1446 1454 1461 1457 1462 1461 1467 1474 1490 1501 1498 1507 1492 1457 1460 1470 1467 1467 1469 1471 1473
1311 1320 1329 1337 1347 1361 1371 1381 1380 1386 1386 1381 1377 1377 1380 1384 1390 1397 1401 1403 1408 1412 1427 1436 1442 1453 1458 1459 1473 1456 1467 1464 1476 1475 1475 1455 1454 1455 1458 1461 1463 1467 1468 1471
1309 1319 1328 1337 1350 1361 1370 1379 1381 1388 1388 1379 1376 1373 1375 1381 1386 1392 1396 1402 1403 1408 1419 1421 1432 1439 1448 1461 1461 1451 1449 1450 1460 1463 1456 1455 1455 1456 1458 1460 1461 1464 1466 1468
1308 1319 1329 1340 1351 1359 1369 1375 1383 1393 1390 1380 1374 1374 1373 1372 1381 1385 1390 1395 1401 1407 1411 1414 1426 1435 1433 1449 1439 1446 1443 1445 1450 1459 1459 1456 1458 1457 1458 1460 1461 1462 1465 1467
1313 1323 1333 1342 1352 1359 1371 1376 1380 1383 1390 1384 1377 1374 1372 1373 1378 1387 1387 1392 1394 1399 1409 1415 1422 1421 1429 1436 1437 1443 1433 1439 1451 1455 1446 1449 1458 1460 1460 1459 1462 1464 1465 1467
1319 1327 1337 1344 1352 1361 1372 1378 1376 1379 1384 1388 1384 1378 1375 1374 1382 1381 1382 1393 1391 1398 1402 1410 1413 1417 1422 1438 1445 1429 1428 1429 1431 1437 1443 1446 1453 1457 1460 1459 1462 1464 1465 1468
1324 1332 1339 1346 1353 1360 1366 1374 1373 1377 1389 1391 1384 1376 1377 1376 1375 1377 1383 1391 1392 1405 1406 1409 1412 1416 1418 1430 1436 1426 1428 1427 1430 1433 1438 1449 1452 1455 1459 1460 1463 1465 1467 1470
1328 1336 1342 1351 1356 1364 1369 1370 1370 1375 1384 1386 1385 1382 1381 1381 1377 1382 1387 1388 1394 1403 1408 1410 1412 1416 1419 1427 1422 1425 1428 1429 1434 1437 1437 1442 1449 1455 1459 1461 1464 1465 1468 1472
1333 1338 1346 1353 1360 1361 1363 1363 1370 1372 1377 1375 1378 1382 1385 1385 1383 1385 1389 1389 1402 1407 1410 1413 1416 1425 1426 1421 1420 1422 1425 1427 1433 1437 1440 1446 1450 1455 1459 1462 1465 1467 1471 1474
1335 1342 1347 1348 1348 1354 1360 1368 1365 1370 1371 1370 1375 1378 1382 1380 1381 1388 1391 1395 1408 1415 1416 1413 1421 1431 1424 1422 1424 1426 1427 1427 1432 1436 1446 1449 1453 1457 1462 1465 1467 1469 1472 1475
1335 1340 1345 1350 1353 1362 1366 1365 1365 1368 1376 1374 1374 1373 1375 1383 1385 1393 1399 1405 1410 1419 1418 1418 1424 1429 1427 1427 1426 1428 1429 1433 1437 1439 1442 1448 1451 1456 1461 1466 1469 1471 1474 1476
1336 1340 1350 1354 1356 1361 1363 1370 1369 1372 1379 1381 1382 1383 1382 1387 1388 1395 1404 1408 1413 1414 1414 1420 1427 1426 1426 1426 1428 1431 1435 1436 1438 1442 1445 1450 1455 1459 1462 1466 1470 1472 1474 1476
1339 1342 1344 1349 1360 1368 1374 1376 1380 1381 1384 1382 1380 1383 1385 1391 1395 1399 1401 1407 1413 1414 1417 1418 1424 1423 1426 1427 1430 1433 1436 1437 1441 1445 1449 1453 1458 1462 1464 1467 1470 1473 1475 1477
1339 1348 1362 1364 1372 1379 1382 1381 1381 1382 1381 1380 1383 1386 1391 1395 1397 1402 1403 1412 1412 1417 1420 1419 1422 1423 1427 1429 1431 1433 1438 1440 1442 1446 1452 1457 1460 1462 1465 1468 1470 1472 1475 1477
1346 1358 1375 1381 1385 1386 1384 1384 1384 1385 1386 1386 1389 1390 1392 1398 1402 1405 1411 1412 1412 1414 1416 1421 1421 1424 1427 1430 1432 1434 1438 1442 1446 1450 1455 1459 1461 1463 1465 1468 1471 1473 1475 1476
1368 1379 1382 1383 1382 1386 1387 1388 1389 1389 1390 1391 1391 1390 1393 1403 1406 1408 1412 1411 1415 1420 1422 1422 1424 1425 1428 1430 1434 1438 1442 1446 1450 1454 1457 1460 1462 1465 1466 1469 1471 1473 1474 1475
1385 1395 1395 1397 1397 1396 1396 1396 1395 1392 1389 1390 1391 1396 1405 1407 1410 1417 1420 1422 1424 1424 1423 1424 1425 1428 1431 1434 1438 1443 1446 1449 1452 1455 1458 1461 1464 1466 1468 1469 1470 1472 1473 1474
Wind_Speed
51 46 39 34 40 39 35 32 8 28 40 14 12 16 12 12 24 14 8 5 10 9 10 8 8 10 7 8 13 9 8 5 4 9 7 7 2 6 5 5 4 0 4 5
54 51 39 31 43 46 45 20 16 32 41 11 14 7 18 22 13 6 5 5 7 3 5 5 4 4 4 9 5 8 7 2 2 6 3 3 6 6 4 5 4 6 5 5
48 45 42 38 46 49 50 17 9 15 27 30 21 19 15 20 22 20 16 8 6 2 3 2 6 4 3 4 11 6 10 4 7 7 7 4 3 3 5 5 4 4 6 5
51 41 41 46 52 52 54 23 10 18 14 19 15 20 14 21 14 17 14 10 16 8 5 2 3 5 2 2 8 4 4 5 4 4 2 2 0 2 1 5 5 6 9 8
47 41 42 49 51 56 54 19 8 25 5 24 20 19 23 25 20 13 18 12 12 8 6 8 8 8 6 6 2 5 2 3 1 4 3 1 3 5 4 4 3 5 5 6
45 42 45 48 48 56 31 39 22 26 16 19 19 20 24 26 19 19 37 11 12 5 9 9 17 21 16 11 7 3 4 6 3 5 4 5 5 7 6 5 3 5 5 4
45 46 46 52 49 57 34 38 22 13 9 13 21 24 22 25 19 21 16 31 10 6 25 29 24 25 19 14 6 7 6 4 3 3 3 2 7 4 5 8 4 7 8 6
45 41 50 46 51 50 43 33 25 6 4 12 15 26 20 22 28 21 30 17 20 34 11 5 6 5 5 5 5 5 2 5 2 4 3 4 6 3 6 5 1 3 7 6
37 45 45 49 44 51 57 34 28 7 2 14 23 21 30 15 13 13 7 15 23 24 4 4 5 5 6 4 3 5 7 5 4 2 4 6 7 4 4 7 2 6 10 5
41 42 42 45 42 56 56 48 34 7 7 8 35 18 24 34 8 9 4 9 6 8 3 3 3 3 7 6 8 4 3 3 5 2 2 7 8 6 3 6 6 10 16 14
42 41 40 41 42 57 49 49 40 13 8 12 17 34 31 31 28 8 7 6 2 3 4 4 4 4 5 4 6 7 6 6 3 3 3 6 8 4 7 7 13 17 13 13
39 42 43 41 46 48 48 29 45 37 10 8 12 16 33 44 35 20 14 10 7 6 4 1 4 2 3 5 3 3 1 6 6 8 6 6 8 6 22 21 18 13 16 14
39 40 41 42 45 42 49 30 23 32 15 27 13 7 16 38 40 32 13 8 12 8 12 6 3 5 4 3 4 4 2 6 4 4 3 2 7 14 18 20 20 20 17 17
36 40 42 40 44 41 42 30 23 23 11 2 6 6 8 25 36 34 32 35 28 14 10 5 3 4 7 4 4 5 6 8 6 3 2 18 14 21 24 24 22 20 18 15
35 36 36 33 31 34 38 26 30 26 4 3 8 3 5 31 31 27 30 34 34 24 5 3 2 4 5 1 3 1 7 7 5 5 17 10 9 17 21 22 19 16 15 17
32 31 34 29 28 32 26 8 32 44 15 8 2 11 2 19 34 31 27 24 16 6 6 2 5 3 3 4 3 2 8 13 17 10 18 20 24 19 16 18 17 15 15 15
28 30 27 27 27 31 25 10 7 34 32 5 2 4 3 12 12 18 17 18 11 3 4 3 5 3 4 3 3 9 14 17 18 24 29 22 20 13 16 16 17 17 20 20
26 27 23 27 26 24 28 12 1 15 21 5 3 2 5 4 3 6 3 6 7 7 3 3 2 4 3 1 3 22 22 24 26 26 7 20 22 21 19 19 21 22 22 20
26 23 26 26 22 16 24 20 12 29 16 7 4 4 3 1 4 5 4 4 3 3 2 1 2 1 2 2 17 24 29 13 24 19 20 25 24 23 22 21 19 20 21 18
36 34 12 7 12 12 26 15 3 7 3 3 3 2 2 4 4 5 4 7 2 2 2 2 4 0 4 10 16 20 14 24 28 32 24 24 24 25 22 21 19 20 18 15
27 8 5 19 22 14 11 6 3 2 4 7 6 7 4 7 4 3 6 2 1 3 3 4 2 2 2 11 14 17 22 26 17 11 21 17 18 24 24 22 18 15 13 12
12 14 22 17 7 4 3 3 3 4 1 2 2 3 5 6 6 4 1 3 2 3 2 4 2 2 16 19 19 20 22 19 19 19 22 22 24 24 22 18 16 13 13 13
18 3 5 4 7 7 4 2 2 1 1 1 3 3 5 4 4 4 3 4 1 1 2 2 1 11 18 24 24 24 22 22 23 22 22 24 24 18 16 17 15 13 13 13
5 4 4 4 4 4 3 2 1 1 2 5 9 5 3 4 4 1 4 0 2 2 2 4 3 16 20 24 26 26 23 22 24 24 22 21 21 19 17 15 14 13 13 12
10 9 5 5 2 6 4 4 3 3 3 4 4 6 4 3 3 2 3 1 2 1 2 1 11 18 22 27 28 25 27 25 24 23 21 20 19 18 17 14 13 11 10 7
7 9 4 7 5 6 8 9 5 2 5 5 2 3 4 3 2 2 2 2 1 1 0 7 16 18 24 27 28 26 25 24 20 21 21 19 17 16 16 15 11 9 6 4
6 4 10 6 5 3 4 3 7 4 2 2 2 5 3 1 3 3 4 2 2 3 8 11 17 22 24 27 27 22 21 20 20 19 18 17 16 14 13 12 10 7 4 2
Wind_Direction
227 215 216 220 205 195 188 195 197 191 194 173 219 220 193 240 255 256 267 279 223 206 183 186 193 199 207 140 148 159 192 136 173 211 248 195 179 241 165 124 237 137 151 268
224 214 209 207 200 193 188 197 185 179 187 191 218 211 211 231 249 210 236 257 210 194 159 128 139 171 191 161 115 152 187 161 58 347 13 282 218 206 186 115 91 193 139 260
211 209 214 205 204 193 192 184 172 180 191 212 197 198 202 216 239 248 262 276 304 233 159 187 153 124 292 129 144 168 144 142 163 183 198 178 205 248 184 130 118 185 214 243
206 208 207 206 206 193 194 199 197 177 197 204 209 188 194 216 227 214 214 249 236 246 177 83 143 116 302 63 135 125 121 158 161 196 185 160 241 284 4 169 205 159 237 203
205 206 205 210 206 192 200 195 201 166 218 196 195 188 207 208 212 234 216 242 256 195 169 175 202 133 192 182 173 132 47 185 201 193 83 45 216 272 271 236 192 238 260 247
207 206 206 210 202 195 201 216 221 178 205 184 186 202 196 215 205 217 238 224 236 214 213 164 187 178 184 154 141 117 112 134 118 233 5 17 353 232 221 245 212 185 204 217
204 206 207 210 208 196 197 203 215 212 189 190 198 191 199 209 205 211 214 231 212 207 135 108 93 82 74 90 61 135 129 106 102 190 40 28 239 279 219 109 27 97 96 102
201 201 202 201 202 197 193 207 212 253 185 190 192 196 206 207 214 210 228 249 231 159 130 78 73 355 26 353 35 66 46 118 107 137 183 293 302 218 176 135 3 332 121 118
190 195 189 197 202 201 191 197 205 273 200 211 188 193 201 200 198 222 191 235 194 171 96 87 134 175 169 164 116 57 74 79 119 130 140 200 237 247 153 111 139 193 131 126
189 188 191 197 201 198 202 212 219 245 294 216 186 198 200 197 177 193 161 164 189 158 93 101 136 210 166 152 163 176 46 22 140 113 189 287 246 239 129 111 221 153 129 124
190 191 194 195 202 199 202 209 220 218 264 275 207 199 196 195 196 171 165 117 324 77 89 128 190 127 208 102 169 172 155 140 179 102 71 277 197 133 158 182 133 131 122 121
189 190 193 200 197 193 200 208 222 227 285 283 294 223 212 211 202 177 164 182 146 146 96 21 106 111 89 134 205 137 149 176 177 175 211 230 185 166 141 142 141 141 137 140
195 194 195 192 184 192 195 199 213 226 280 293 264 256 221 216 210 208 170 176 163 145 252 166 160 112 123 143 233 119 269 156 130 97 337 84 116 147 155 158 149 144 143 148
176 181 176 183 186 192 191 194 175 182 248 257 285 284 204 193 205 209 203 202 177 166 173 93 130 129 186 206 167 142 193 142 153 91 73 86 106 129 142 139 140 139 138 140
166 166 171 171 186 190 196 209 209 201 297 335 288 326 115 156 156 179 171 172 173 173 133 92 171 142 118 325 83 214 179 167 152 210 183 132 151 143 150 141 136 132 139 129
161 166 169 181 183 181 182 212 226 223 231 308 50 305 277 142 178 186 144 162 130 124 116 142 120 155 125 116 175 260 192 193 182 152 154 155 148 150 151 146 140 135 133 124
161 163 168 168 173 169 173 185 170 215 219 259 95 293 55 136 121 122 127 157 134 122 104 76 128 116 114 97 162 169 135 145 147 155 144 127 145 142 140 140 132 129 117 112
159 167 169 168 165 171 193 199 214 178 186 245 123 276 339 342 51 88 112 92 101 57 89 93 106 94 53 131 154 146 137 133 138 152 162 167 147 142 136 134 133 124 118 118
165 161 154 156 169 189 187 193 205 196 187 179 140 145 202 290 86 90 78 64 69 52 92 210 103 322 188 252 159 151 152 153 140 144 140 140 140 136 135 137 134 128 124 123
154 157 163 155 182 196 213 244 250 166 186 52 94 163 195 64 54 48 69 37 104 82 267 85 66 304 19 130 156 166 156 154 150 131 126 137 130 134 136 135 133 133 137 140
160 149 101 144 160 173 192 207 123 40 41 14 21 31 79 34 85 98 37 109 35 89 252 126 143 173 182 124 131 150 160 159 160 154 151 156 156 151 148 144 143 145 148 150
132 113 124 147 170 197 104 25 5 42 96 24 99 24 87 65 65 84 122 102 62 150 156 88 146 226 144 131 123 140 155 154 141 144 141 142 146 148 148 148 152 152 149 139
127 69 86 20 9 57 70 99 45 118 298 100 93 51 64 92 91 89 96 76 131 57 82 169 183 151 144 143 139 134 140 143 142 140 141 143 143 150 157 149 148 146 144 140
100 96 79 49 42 51 31 34 72 51 15 100 111 83 89 68 52 37 99 210 95 99 146 205 166 156 145 148 147 143 144 143 139 139 147 153 153 152 153 149 147 153 151 146
46 37 39 41 76 66 67 51 69 104 112 134 117 87 102 60 94 47 103 82 137 130 166 167 161 154 150 146 151 149 146 145 145 146 152 157 156 154 150 148 151 157 156 157
61 46 50 14 38 17 26 42 19 26 127 132 80 104 73 70 114 81 25 119 127 142 85 148 155 148 154 156 155 148 143 145 151 160 158 154 155 155 152 151 156 160 169 193
57 48 53 108 98 72 49 43 11 34 131 65 35 55 58 135 65 52 15 33 1 66 112 145 157 155 155 159 155 154 155 155 162 158 156 155 155 155 156 158 160 168 180 248